TimeEDT,TemperatureF,Dew PointF,Humidity,Sea Level PressureIn,VisibilityMPH,Wind Direction,Wind SpeedMPH,Gust SpeedMPH,PrecipitationIn,Events,Conditions,WindDirDegrees,DateUTC
12:51 AM,72.0,70.0,93,29.95,10.0,Calm,Calm,-,N/A,,Mostly Cloudy,0,2013-10-08 04:51:00
1:51 AM,73.9,72.0,93,29.95,9.0,NE,3.5,-,0.00,Rain,Light Rain,50,2013-10-08 05:51:00
2:51 AM,73.9,73.0,97,29.93,7.0,NNE,4.6,-,0.05,Rain,Light Rain,30,2013-10-08 06:51:00
3:25 AM,73.4,71.6,94,29.94,10.0,NNE,3.5,-,0.02,Rain,Light Rain,30,2013-10-08 07:25:00
3:44 AM,73.4,71.6,94,29.94,9.0,NNE,11.5,20.7,0.02,Rain,Light Rain,30,2013-10-08 07:44:00
3:51 AM,72.0,71.1,97,29.95,9.0,NNE,8.1,21.9,0.02,Rain,Light Rain,30,2013-10-08 07:51:00
4:51 AM,70.0,69.1,97,29.96,9.0,NE,11.5,28.8,0.04,Rain,Light Rain,40,2013-10-08 08:51:00
5:51 AM,70.0,69.1,97,29.98,10.0,NE,16.1,25.3,0.01,Rain,Light Rain,50,2013-10-08 09:51:00
6:34 AM,69.8,68.0,94,30.00,2.5,NE,12.7,23.0,0.13,Rain,Rain,40,2013-10-08 10:34:00
6:41 AM,69.8,68.0,94,30.01,4.0,NE,13.8,26.5,0.16,Rain,Rain,50,2013-10-08 10:41:00
6:51 AM,69.1,66.9,93,30.01,3.0,NE,16.1,24.2,0.18,Rain,Rain,40,2013-10-08 10:51:00
7:51 AM,68.0,66.0,93,30.04,6.0,NE,13.8,26.5,0.08,Rain,Light Rain,50,2013-10-08 11:51:00
8:03 AM,66.2,66.2,100,30.04,5.0,NE,16.1,27.6,0.01,Rain,Light Rain,50,2013-10-08 12:03:00
8:51 AM,66.9,66.0,97,30.06,6.0,NE,11.5,28.8,0.08,Rain,Light Rain,50,2013-10-08 12:51:00
9:51 AM,66.9,64.9,93,30.06,6.0,NE,13.8,28.8,0.07,Rain,Light Rain,50,2013-10-08 13:51:00
10:20 AM,66.2,64.4,94,30.06,7.0,NE,17.3,32.2,0.01,Rain,Light Rain,50,2013-10-08 14:20:00
10:33 AM,66.2,64.4,94,30.05,7.0,NE,12.7,27.6,0.01,Rain,Light Rain,50,2013-10-08 14:33:00
10:51 AM,66.0,64.0,93,30.06,7.0,NE,13.8,27.6,0.02,Rain,Light Rain,50,2013-10-08 14:51:00
11:51 AM,66.0,64.0,93,30.08,6.0,NE,12.7,23.0,0.04,Rain,Light Rain,50,2013-10-08 15:51:00
12:51 PM,66.0,63.0,90,30.08,7.0,NE,12.7,24.2,0.03,Rain,Light Rain,50,2013-10-08 16:51:00
1:22 PM,66.2,64.4,94,30.07,5.0,NE,13.8,21.9,0.03,Rain,Light Rain,50,2013-10-08 17:22:00
1:51 PM,66.0,64.0,93,30.07,6.0,NE,11.5,23.0,0.06,Rain,Light Rain,50,2013-10-08 17:51:00
2:39 PM,66.2,64.4,94,30.05,5.0,NE,12.7,24.2,0.04,Rain,Light Rain,50,2013-10-08 18:39:00
2:51 PM,66.9,64.9,93,30.05,5.0,NE,13.8,25.3,0.06,Rain,Light Rain,50,2013-10-08 18:51:00
3:51 PM,66.0,64.9,96,30.05,5.0,NE,16.1,28.8,0.05,Rain,Light Rain,50,2013-10-08 19:51:00
4:51 PM,66.0,64.9,96,30.04,6.0,NE,12.7,26.5,0.03,Rain,Light Rain,50,2013-10-08 20:51:00
5:51 PM,66.9,64.9,93,30.03,8.0,NE,13.8,31.1,0.03,Rain,Light Rain,40,2013-10-08 21:51:00
6:51 PM,66.9,64.9,93,30.04,10.0,NE,15.0,31.1,0.01,,Overcast,40,2013-10-08 22:51:00
7:00 PM,66.2,64.4,94,30.04,10.0,NE,13.8,25.3,N/A,,Overcast,50,2013-10-08 23:00:00
7:51 PM,68.0,66.0,93,30.04,9.0,NE,10.4,25.3,0.01,Rain,Light Rain,50,2013-10-08 23:51:00
8:51 PM,68.0,66.0,93,30.05,6.0,NE,13.8,26.5,0.03,Rain,Light Rain,50,2013-10-09 00:51:00
9:51 PM,66.9,64.9,93,30.04,7.0,NE,18.4,32.2,0.04,Rain,Light Rain,50,2013-10-09 01:51:00
10:51 PM,66.0,64.0,93,30.04,5.0,NE,15.0,35.7,0.09,Rain,Light Rain,40,2013-10-09 02:51:00
11:51 PM,66.0,64.0,93,30.02,8.0,NE,16.1,34.5,0.04,Rain,Light Rain,40,2013-10-09 03:51:00